| time (UTC) | temp C | wind direction | speed KPH | gust KPH | rain 1hr cm | rain 24hr cm | rain mn cm | humidity % | barometer mb |
| 20260502151605 | 4 | 280 | 8.0 | 19.3 | 0.00 | 0.00 | 0.00 | 56 | 1017.6 |
| 20260502123056 | 2 | 360 | 4.8 | 16.1 | 0.00 | 0.00 | 0.00 | 78 | 1017.9 |
| 20260502121552 | 2 | 342 | 4.8 | 14.5 | 0.00 | 0.00 | 0.00 | 80 | 1017.9 |
| 20260502114558 | 1 | 304 | 3.2 | 8.0 | 0.00 | 0.00 | 0.00 | 82 | 1017.8 |
| 20260502113100 | 0 | 269 | 1.6 | 4.8 | 0.00 | 0.00 | 0.00 | 83 | 1017.7 |
| 20260502111555 | 0 | 0 | 0.0 | 3.2 | 0.00 | 0.00 | 0.00 | 85 | 1017.6 |
| 20260502110059 | 0 | 286 | 0.0 | 4.8 | 0.00 | 0.00 | 0.00 | 84 | 1017.5 |
| 20260502104553 | 0 | 0 | 1.6 | 3.2 | 0.00 | 0.00 | 0.00 | 83 | 1017.5 |
| 20260502103058 | 1 | 300 | 0.0 | 3.2 | 0.00 | 0.00 | 0.00 | 82 | 1017.4 |
| 20260502101556 | 1 | 316 | 1.6 | 6.4 | 0.00 | 0.00 | 0.00 | 83 | 1017.3 |
| 20260502080105 | 2 | 311 | 0.0 | 4.8 | 0.00 | 0.00 | 0.00 | 88 | 1016.6 |
| 20260502070100 | 2 | 0 | 0.0 | 3.2 | 0.00 | 0.00 | 0.00 | 85 | 1016.6 |
| 20260502064601 | 2 | 0 | 0.0 | 0.0 | 0.00 | 0.00 | 0.00 | 84 | 1016.7 |
| 20260502063053 | 2 | 0 | 0.0 | 4.8 | 0.00 | 0.00 | 0.00 | 84 | 1016.7 |
| 20260502061555 | 3 | 0 | 0.0 | 1.6 | 0.00 | 0.00 | 0.00 | 82 | 1016.8 |
| 20260502060051 | 2 | 0 | 1.6 | 3.2 | 0.00 | 0.00 | 0.00 | 81 | 1016.8 |
| 20260502054557 | 3 | 0 | 0.0 | 3.2 | 0.00 | 0.00 | 0.00 | 81 | 1016.9 |
| 20260502053055 | 3 | 195 | 0.0 | 4.8 | 0.00 | 0.00 | 0.00 | 82 | 1016.8 |
| 20260502051552 | 3 | 0 | 0.0 | 1.6 | 0.00 | 0.00 | 0.00 | 80 | 1016.8 |
| 20260502050050 | 3 | 0 | 0.0 | 3.2 | 0.00 | 0.00 | 0.00 | 79 | 1016.8 |
| 20260502044552 | 3 | 0 | 0.0 | 1.6 | 0.00 | 0.00 | 0.00 | 78 | 1016.7 |
| 20260502043052 | 3 | 0 | 0.0 | 3.2 | 0.00 | 0.00 | 0.00 | 78 | 1016.5 |
| 20260502041553 | 3 | 0 | 0.0 | 4.8 | 0.00 | 0.00 | 0.00 | 76 | 1016.5 |
| 20260502040106 | 4 | 0 | 0.0 | 3.2 | 0.00 | 0.00 | 0.00 | 75 | 1016.2 |
| 20260502034556 | 4 | 0 | 0.0 | 4.8 | 0.00 | 0.00 | 0.00 | 73 | 1016.0 |
| 20260502033054 | 5 | 0 | 0.0 | 8.0 | 0.00 | 0.00 | 0.00 | 69 | 1016.3 |
| 20260502031612 | 5 | 339 | 1.6 | 4.8 | 0.00 | 0.00 | 0.00 | 61 | 1016.1 |
| 20260502030100 | 5 | 318 | 9.7 | 16.1 | 0.00 | 0.00 | 0.00 | 56 | 1016.0 |
| 20260502024553 | 5 | 333 | 3.2 | 9.7 | 0.00 | 0.00 | 0.00 | 56 | 1015.9 |
| 20260502023055 | 5 | 304 | 4.8 | 12.9 | 0.00 | 0.00 | 0.00 | 56 | 1015.9 |
| 20260502021555 | 5 | 360 | 6.4 | 17.7 | 0.00 | 0.00 | 0.00 | 55 | 1015.8 |
| 20260502020110 | 5 | 346 | 6.4 | 16.1 | 0.00 | 0.00 | 0.00 | 55 | 1015.6 |
| 20260502014554 | 5 | 322 | 4.8 | 14.5 | 0.00 | 0.00 | 0.00 | 57 | 1015.5 |
| 20260502013058 | 5 | 31 | 4.8 | 11.3 | 0.00 | 0.00 | 0.00 | 59 | 1015.5 |
| 20260502011557 | 5 | 340 | 3.2 | 8.0 | 0.00 | 0.00 | 0.00 | 59 | 1015.3 |
| 20260502010052 | 5 | 0 | 4.8 | 19.3 | 0.00 | 0.00 | 0.00 | 62 | 1015.2 |
| 20260502004558 | 5 | 350 | 8.0 | 17.7 | 0.00 | 0.00 | 0.00 | 58 | 1015.1 |
| 20260502003129 | 6 | 340 | 4.8 | 16.1 | 0.00 | 0.00 | 0.00 | 58 | 1015.1 |
| 20260502001625 | 6 | 360 | 3.2 | 14.5 | 0.00 | 0.00 | 0.00 | 60 | 1014.9 |
| 20260502000051 | 6 | 11 | 8.0 | 16.1 | 0.00 | 0.00 | 0.00 | 57 | 1014.7 |
| 20260501234550 | 6 | 334 | 6.4 | 14.5 | 0.00 | 0.00 | 0.00 | 55 | 1014.6 |
| 20260501233050 | 6 | 308 | 6.4 | 12.9 | 0.00 | 0.00 | 0.00 | 55 | 1014.5 |
| 20260501231550 | 7 | 337 | 3.2 | 17.7 | 0.00 | 0.00 | 0.00 | 56 | 1014.5 |
| 20260501230049 | 7 | 298 | 4.8 | 12.9 | 0.00 | 0.00 | 0.00 | 55 | 1014.4 |
| 20260501224602 | 7 | 242 | 3.2 | 9.7 | 0.00 | 0.00 | 0.00 | 59 | 1014.4 |
| 20260501223050 | 6 | 217 | 3.2 | 8.0 | 0.00 | 0.00 | 0.00 | 59 | 1014.5 |
| 20260501221556 | 6 | 306 | 1.6 | 6.4 | 0.00 | 0.00 | 0.00 | 60 | 1014.5 |
| 20260501220053 | 7 | 320 | 0.0 | 3.2 | 0.00 | 0.00 | 0.00 | 60 | 1014.4 |
| 20260501214557 | 6 | 0 | 1.6 | 8.0 | 0.00 | 0.00 | 0.00 | 62 | 1014.3 |
| 20260501213056 | 7 | 12 | 1.6 | 12.9 | 0.00 | 0.00 | 0.00 | 62 | 1014.3 |
| 20260501211601 | 6 | 0 | 3.2 | 11.3 | 0.00 | 0.00 | 0.00 | 61 | 1014.3 |
| 20260501210100 | 6 | 267 | 6.4 | 19.3 | 0.00 | 0.00 | 0.00 | 60 | 1014.2 |
| 20260501204556 | 6 | 268 | 9.7 | 16.1 | 0.00 | 0.00 | 0.00 | 59 | 1014.1 |
| 20260501203102 | 6 | 306 | 6.4 | 14.5 | 0.00 | 0.00 | 0.00 | 58 | 1014.1 |
| 20260501201553 | 6 | 300 | 4.8 | 12.9 | 0.00 | 0.00 | 0.00 | 58 | 1014.2 |
| 20260501200055 | 6 | 276 | 4.8 | 12.9 | 0.00 | 0.00 | 0.00 | 59 | 1014.0 |
| 20260501194548 | 6 | 260 | 3.2 | 16.1 | 0.00 | 0.00 | 0.00 | 59 | 1014.1 |
| 20260501193048 | 6 | 0 | 3.2 | 14.5 | 0.00 | 0.00 | 0.00 | 61 | 1014.1 |
| 20260501191549 | 6 | 355 | 9.7 | 19.3 | 0.00 | 0.00 | 0.00 | 60 | 1014.0 |
| 20260501190057 | 7 | 329 | 14.5 | 27.4 | 0.00 | 0.00 | 0.00 | 58 | 1013.8 |
| 20260501184550 | 7 | 320 | 3.2 | 14.5 | 0.00 | 0.00 | 0.00 | 52 | 1013.6 |
| 20260501183057 | 7 | 325 | 4.8 | 16.1 | 0.00 | 0.00 | 0.00 | 55 | 1013.6 |
| 20260501181556 | 7 | 36 | 1.6 | 12.9 | 0.00 | 0.00 | 0.00 | 59 | 1013.7 |
| 20260501180053 | 6 | 310 | 8.0 | 20.9 | 0.00 | 0.00 | 0.00 | 59 | 1013.6 |
| 20260501174552 | 7 | 318 | 9.7 | 16.1 | 0.00 | 0.00 | 0.00 | 58 | 1013.8 |
| 20260501173102 | 7 | 338 | 9.7 | 17.7 | 0.00 | 0.00 | 0.00 | 59 | 1013.7 |
| 20260501171555 | 7 | 281 | 1.6 | 19.3 | 0.00 | 0.00 | 0.00 | 60 | 1013.8 |
| 20260501170053 | 7 | 337 | 8.0 | 20.9 | 0.00 | 0.00 | 0.00 | 60 | 1013.8 |
| 20260501164605 | 6 | 304 | 8.0 | 19.3 | 0.00 | 0.00 | 0.00 | 62 | 1013.8 |
| 20260501163051 | 6 | 341 | 3.2 | 20.9 | 0.00 | 0.00 | 0.00 | 63 | 1013.9 |
| 20260501161601 | 6 | 44 | 4.8 | 19.3 | 0.00 | 0.00 | 0.00 | 62 | 1013.9 |